User: anonymous   Login
Location: Newark
(44.3248°N, 23.7839°E)
Time: 00:39:49
(UTC+00:00)
Language:

MOZHAYETS 4 - Orbit

View from above orbital plane
View from above orbital plane
View from above satellite
View from above satellite

Ground track
Ground track

The orbit data is extracted from the following two-line orbital elements,

1 27939U 03042A   24109.86413319  .00004003  00000-0  68090-3 0  9993
2 27939  98.2830 265.1622 0011132 244.8869 247.9661 14.69633760 99564
Epoch (UTC): 18 April 2024 20:44:21
Eccentricity: 0.0011132
inclination: 98.2830°
perigee height: 654 km
apogee height: 670 km
right ascension of ascending node: 265.1622°
argument of perigee: 244.8869°
revolutions per day: 14.69633760
mean anomaly at epoch: 247.9661°
orbit number at epoch: 9956

The dashed part of the orbit path shows where the satellite is in the earth's shadow,  

DLR